Back to catalog

SL-8 DEB

AliveLEO
NORAD 39840·DEBRIS·🇷🇺 Russia

Launched Feb 12, 1991 from Plesetsk Cosmodrome

Loading…

Next Passes (next 24 hours)

TLE

StaleSource: Space-Track

Epoch: Aug 29, 2026, 14:36 UTC

1 39840U 91009DY  26241.60835742  .00002426  00000-0  28211-2 0  9993
2 39840  73.7856 323.8489 0103128  70.0924 356.4508 13.67062216604102

Track SL-8 DEB in real time with AllMySat

Download on the App Store